Etusivu
METAR-TAF:

METAR-TAF

Lentoasemat :

Storuman, Ruotsi

Leveyspiiri: 64-57-39N, Pituuspiiri: 017-41-47E, korkeus merenpinnasta: 279 m

Tämänhetkinen sää

Tämä raportti tehtiin 19 minuuttia sitten, kello 12.20 UTC
Tuuli 7 kn luoteesta
Lämpötila 6°C
Kosteus 56%
Ilmanpaine 1018 hPa
Näkyvyys 10 km tai enemmän

METAR: ESUD 191220Z AUTO 31007KT 9999 NCD 06/M02 Q1018

Aika: 14:39 (12:39 UTC)


TAF: puuttuu

Säähavainnot ja -ennusteet yli 4000 lentoasemalta (METAR- ja TAF-raportit).

Käytössä olevat sääasemat on merkitty karttaan keltaisilla ja punaisilla pisteillä.

Aseta hiiri pisteen päälle nähdäksesi sääaseman nimen.

Klikkaa sitten nähdäksesi säähavainnot ja -ennusteet.

Kartan vaihtaminen: klikkaa mustalla rastilla varustettuja vihreitä pisteitä, niin voit zoomata sisään; viivalla varustettua vihreää pistettä, niin voit zoomata ulos tai vihreitä nuolia, niin pääset viereisille kartoille.


METAR-TAF: